#timestamp,LO_Frequency,Hit,StdDev 
1682247615.1,286046999.4,N
1682247635.9,286046999.4,N
1682247655.7,286046999.2,N
1682247675.6,286046997.3,N
1682247695.4,286046996.8,N
1682247715.2,286046997.7,N
1682247735.1,286046997.5,N
1682247736.0,286046997.5,N
1682247755.8,286046997.4,N
1682247775.7,286046997.8,N
1682247795.5,286046997.1,N
1682247815.3,286046997.7,N
1682247835.2,286046996.3,N
1682247855.0,286046994.0,Y
1682247855.9,286046994.0,P
1682247875.8,286046994.9,N
1682247895.6,286046996.0,N
1682247915.4,286046997.8,N
1682247935.3,286046997.7,N
1682247955.1,286046997.0,N
1682247975.8,286046999.1,N
1682247995.7,286046999.3,N
1682248015.5,286046999.0,N
1682248035.4,286046997.0,N
1682248055.2,286047001.2,N
1682248075.0,286046998.6,N
1682248075.9,286046998.6,N
1682248095.8,286047001.1,N
1682248115.6,286047000.2,N
1682248135.4,286047002.8,N
1682248155.3,286047002.5,N
1682248175.1,286047001.5,N
1682248195.9,286046999.8,N
1682248215.7,286047000.6,N
1682248235.5,286047000.5,N
1682248255.4,286046999.8,N
1682248275.2,286047002.1,N
1682248295.0,286047002.6,N
1682248295.9,286047002.6,N
1682248315.8,286047001.8,N
1682248335.6,286047004.4,N
1682248355.4,286047001.8,N
1682248375.3,286047001.6,N
1682248395.1,286047002.0,N
1682248415.9,286047002.6,N
1682248435.7,286046999.8,N
1682248455.5,286047000.0,N
1682248475.4,286046998.2,N
1682248495.2,286046998.2,N
1682248515.0,286046999.5,N
1682248515.9,286046999.5,N
1682248535.8,286046996.9,N
1682248555.6,286046997.4,N
1682248575.5,286046996.4,N
1682248595.3,286046995.7,N
1682248615.1,286046996.0,N
1682248635.9,286046995.0,N
1682248655.7,286046995.6,N
1682248675.5,286046997.2,N
1682248695.4,286046997.2,N
1682248715.2,286046996.7,N
1682248735.1,286046995.5,N
1682248736.0,286046995.5,N
1682248755.8,286046997.2,N
1682248775.6,286046996.8,N
1682248795.5,286046997.7,N
1682248815.3,286046995.4,N
1682248835.1,286046995.0,N
1682248855.9,286046995.2,N
1682248875.7,286046997.5,N
1682248895.6,286046995.0,N
1682248915.4,286046995.3,N
1682248935.2,286046997.3,N
1682248955.1,286046995.2,N
1682248956.0,286046995.2,N
1682248975.8,286046997.9,N
1682248995.7,286046996.9,N
1682249015.5,286046997.4,N
1682249035.3,286046997.4,N
1682249055.2,286046997.5,N
1682249075.0,286046996.8,N
1682249075.9,286046996.8,Y
1682249095.8,286047001.2,P
1682249115.6,286046998.1,N
1682249135.4,286046998.5,N
1682249155.3,286046996.6,N
1682249175.1,286046998.3,N
1682249195.8,286046998.2,N
1682249215.7,286046998.2,N
1682249235.5,286046998.8,N
1682249255.4,286046998.2,N
1682249275.2,286046999.4,N
1682249295.0,286046999.3,N
1682249295.9,286046999.3,N
1682249315.8,286046998.1,N
1682249335.6,286046999.4,N
1682249355.4,286046998.8,N
1682249375.3,286047000.2,N
1682249395.1,286047001.9,N
1682249415.9,286047001.8,N
1682249435.7,286047001.6,N
1682249455.5,286047000.2,N
1682249475.4,286046999.8,N
1682249495.2,286046999.9,N
1682249515.0,286047000.1,N
1682249515.9,286047000.1,N
1682249535.8,286047002.0,N
1682249555.6,286047001.6,N
1682249575.5,286047004.0,N
1682249595.3,286047001.9,N
1682249615.1,286047001.8,N
1682249635.9,286047004.3,N
1682249655.7,286047002.0,N
1682249675.5,286047001.4,N
1682249695.4,286047003.8,N
1682249715.2,286047003.9,N
1682249735.1,286047002.5,N
1682249736.0,286047002.5,N
1682249755.8,286047002.3,N
1682249775.6,286047000.3,N
1682249795.5,286047000.1,N
1682249815.3,286047001.3,N
1682249835.1,286047004.1,N
1682249855.9,286047005.6,Y
1682249875.7,286047004.2,P
1682249895.6,286047001.7,N
1682249915.4,286047001.8,N
1682249935.2,286047004.4,Y
1682249955.1,286047000.1,P
1682249956.0,286047000.1,N
1682249975.8,286047000.1,N
1682249995.7,286047000.2,N
1682250015.5,286047000.5,N
1682250035.3,286047000.6,N
1682250055.2,286047000.2,N
1682250075.9,286047001.1,N
1682250095.7,286047001.2,N
1682250115.6,286046998.4,N
1682250135.4,286046998.3,N
1682250155.2,286047000.6,N
1682250175.1,286046999.7,N
1682250176.0,286046999.7,N
1682250195.8,286046999.8,N
1682250215.7,286047002.2,N
1682250235.5,286047001.9,N
1682250255.3,286047000.1,N
1682250275.2,286047002.0,N
1682250295.0,286047001.6,N
1682250295.9,286047001.6,N
1682250315.8,286047002.2,N
1682250335.6,286047001.8,N
1682250355.4,286047002.2,N
1682250375.3,286047002.6,N
1682250395.1,286047004.0,Y
1682250415.8,286047001.9,P
1682250435.7,286047004.0,P
1682250455.5,286047001.9,N
1682250475.4,286047001.5,N
1682250495.2,286047003.9,Y
1682250515.0,286047002.3,P
1682250515.9,286047002.3,P
1682250535.8,286047002.1,P
1682250555.6,286046999.8,N
1682250575.4,286046999.7,N
1682250595.3,286047002.3,N
1682250615.1,286047002.0,N
1682250635.9,286047002.0,N
1682250655.7,286047001.6,N
1682250675.5,286047001.7,N
1682250695.4,286047002.6,N
1682250715.2,286046999.8,N
1682250735.0,286046999.8,N
1682250735.9,286046999.8,N
1682250755.8,286047002.6,N
1682250775.6,286047001.6,N
1682250795.5,286047004.0,Y
1682250815.3,286047002.5,P
1682250835.1,286047001.8,P
1682250855.9,286047003.7,P
1682250875.7,286047001.3,N
1682250895.6,286047004.4,Y
1682250915.4,286047000.6,P
1682250935.2,286047000.9,N
1682250955.1,286046999.8,N
1682250956.0,286046999.8,N
1682250975.8,286047000.1,N
1682250995.6,286047002.3,N
1682251015.5,286047001.9,N
1682251035.3,286047001.5,N
1682251055.2,286047001.5,N
1682251075.9,286047001.4,N
1682251095.7,286047001.3,N
1682251115.6,286047001.6,N
1682251135.4,286047001.8,N
1682251155.2,286047004.1,Y
1682251175.1,286047004.4,P
1682251176.0,286047004.4,N
1682251195.8,286047001.8,N
